Cambridge, MN

10:02 PM CST on January 23, 2017 (GMT -0600)
Cambridge Municipal

Weather History for KCBG - December, 2013

Change the Weather History Date:

Saturday, December 7, 2013

  Actual Average Record
Temperature  
Mean Temperature -7 °F -  
Max Temperature 0 °F 26 °F 87 °F (1998)
Min Temperature -14 °F 8 °F -23 °F (1972)
Degree Days  
Heating Degree Days 72    
Moisture  
Dew Point -17 °F    
Average Humidity 67    
Maximum Humidity 77    
Minimum Humidity 55    
Precipitation  
Precipitation 0.00 in - - ()
Sea Level Pressure  
Sea Level Pressure 30.59 in    
Wind  
Wind Speed 3 mph (SSW)    
Max Wind Speed 9 mph    
Max Gust Speed -    
Visibility 10 miles    
Events      
Averages and records for this station are not official NWS values.
T = Trace of Precipitation, MM = Missing Value Source: NWS Daily Summary

Daily Weather History Graph

Daily Weather History Graph

Search for Another Location

Airport or City:

Trip Planner

Search our weather history database for the weather conditions in past years. The results will help you decide how hot, cold, wet, or windy it might be!

Date:

Astronomy

Dec. 07, 2013 Rise Set
Actual Time 7:39 AM CST 4:29 PM CST
Civil Twilight 7:05 AM CST 5:03 PM CST
Nautical Twilight 6:28 AM CST 5:40 PM CST
Astronomical Twilight 5:52 AM CST 6:16 PM CST
Moon 11:14 AM CST (12/7) 10:23 PM CST (12/7)
Length of Visible Light 9h 57m
Length of Day
8h 49m
Waxing Crescent, 29% of the Moon is Illuminated
Dec 7
Waxing Crescent
Dec 9
First Quarter
Dec 17
Full
Dec 25
Last Quarter
Jan 1
New

Hourly Weather History & Observations

Time (CST) Temp. Windchill Dew Point Humidity Pressure Visibility Wind Dir Wind Speed Gust Speed Precip Events Conditions
12:15 AM -9.4 °F -20.9 °F -18.4 °F 65% 30.58 in 10.0 mi West 4.6 mph - N/A   Clear
12:36 AM -9.4 °F -20.9 °F -18.4 °F 65% 30.58 in 10.0 mi West 4.6 mph - N/A   Clear
12:55 AM -9.4 °F -18.6 °F -18.4 °F 65% 30.58 in 10.0 mi WSW 3.5 mph - N/A   Clear
1:15 AM -11.2 °F - -18.4 °F 70% 30.58 in 10.0 mi Calm Calm - N/A   Clear
1:35 AM -11.2 °F -20.6 °F -18.4 °F 70% 30.59 in 10.0 mi WSW 3.5 mph - N/A   Clear
1:55 AM -11.2 °F - -18.4 °F 70% 30.59 in 10.0 mi Calm Calm - N/A   Clear
2:15 AM -11.2 °F - -18.4 °F 70% 30.59 in 10.0 mi Calm Calm - N/A   Clear
2:35 AM -13.0 °F - -20.2 °F 70% 30.60 in 10.0 mi Calm Calm - N/A   Clear
2:55 AM -11.2 °F - -18.4 °F 70% 30.60 in 10.0 mi Calm Calm - N/A   Clear
3:15 AM -11.2 °F -23.0 °F -18.4 °F 70% 30.61 in 10.0 mi SSW 4.6 mph - N/A   Clear
3:35 AM -11.2 °F - -18.4 °F 70% 30.61 in 10.0 mi Calm Calm - N/A   Clear
3:55 AM -11.2 °F - -18.4 °F 70% 30.61 in 10.0 mi Calm Calm - N/A   Clear
4:15 AM -11.2 °F - -20.2 °F 64% 30.61 in 10.0 mi Calm Calm - N/A   Clear
4:35 AM -11.2 °F - -20.2 °F 64% 30.61 in 10.0 mi Calm Calm - N/A   Clear
4:55 AM -11.2 °F -20.6 °F -20.2 °F 64% 30.61 in 10.0 mi WSW 3.5 mph - N/A   Clear
5:15 AM -11.2 °F - -20.2 °F 64% 30.61 in 10.0 mi Calm Calm - N/A   Clear
5:35 AM -11.2 °F - -20.2 °F 64% 30.61 in 10.0 mi Calm Calm - N/A   Clear
5:56 AM -14.8 °F -24.8 °F -20.2 °F 77% 30.61 in 10.0 mi SSW 3.5 mph - N/A   Clear
6:15 AM -14.8 °F - -20.2 °F 77% 30.61 in 10.0 mi Calm Calm - N/A   Clear
6:35 AM -13.0 °F -22.7 °F -20.2 °F 70% 30.62 in 10.0 mi South 3.5 mph - N/A   Clear
6:55 AM -14.8 °F -24.8 °F -20.2 °F 77% 30.62 in 10.0 mi South 3.5 mph - N/A   Clear
7:15 AM -14.8 °F - -23.8 °F 64% 30.63 in 10.0 mi Calm Calm - N/A   Clear
7:35 AM -14.8 °F -24.8 °F -22.0 °F 70% 30.63 in 10.0 mi SSW 3.5 mph - N/A   Clear
7:56 AM -14.8 °F -24.8 °F -20.2 °F 77% 30.64 in 10.0 mi SSW 3.5 mph - N/A   Clear
8:15 AM -14.8 °F -24.8 °F -20.2 °F 77% 30.63 in 10.0 mi SSW 3.5 mph - N/A   Clear
8:36 AM -13.0 °F - -20.2 °F 70% 30.63 in 10.0 mi Calm Calm - N/A   Clear
8:55 AM -11.2 °F - -18.4 °F 70% 30.63 in 10.0 mi Calm Calm - N/A   Clear
9:15 AM -11.2 °F - -18.4 °F 70% 30.64 in 10.0 mi Calm Calm - N/A   Clear
9:35 AM -9.4 °F -18.6 °F -18.4 °F 65% 30.64 in 10.0 mi WSW 3.5 mph - N/A   Clear
9:55 AM -7.6 °F -16.5 °F -16.6 °F 65% 30.64 in 10.0 mi West 3.5 mph - N/A   Clear
10:16 AM -7.6 °F -18.8 °F -16.6 °F 65% 30.65 in 10.0 mi SW 4.6 mph - N/A   Clear
10:35 AM -5.8 °F -19.9 °F -16.6 °F 60% 30.65 in 10.0 mi WSW 6.9 mph - N/A   Clear
10:55 AM -5.8 °F -18.4 °F -14.8 °F 65% 30.64 in 10.0 mi SW 5.8 mph - N/A   Clear
11:15 AM -4.0 °F -16.3 °F -14.8 °F 60% 30.64 in 10.0 mi SW 5.8 mph - N/A   Clear
11:36 AM -2.2 °F -15.6 °F -14.8 °F 55% 30.63 in 10.0 mi SW 6.9 mph - N/A   Clear
11:55 AM -2.2 °F -16.8 °F -14.8 °F 55% 30.63 in 10.0 mi SSW 8.1 mph - N/A   Clear
12:15 PM -2.2 °F -12.5 °F -13.0 °F 60% 30.62 in 10.0 mi SW 4.6 mph - N/A   Clear
12:35 PM -2.2 °F -14.2 °F -11.2 °F 66% 30.61 in 10.0 mi South 5.8 mph - N/A   Clear
12:55 PM -0.4 °F -10.4 °F -11.2 °F 60% 30.61 in 10.0 mi SSW 4.6 mph - N/A   Clear
1:15 PM -0.4 °F -15.7 °F -11.2 °F 60% 30.61 in 10.0 mi SSW 9.2 mph - N/A   Clear
1:35 PM -0.4 °F -15.7 °F -11.2 °F 60% 30.61 in 10.0 mi SSW 9.2 mph - N/A   Clear
1:55 PM -0.4 °F -14.7 °F -11.2 °F 60% 30.60 in 10.0 mi SW 8.1 mph - N/A   Clear
2:15 PM -0.4 °F -15.7 °F -11.2 °F 60% 30.59 in 10.0 mi SSW 9.2 mph - N/A   Clear
2:35 PM -0.4 °F -13.4 °F -11.2 °F 60% 30.59 in 10.0 mi SSW 6.9 mph - N/A   Clear
2:55 PM -0.4 °F -13.4 °F -11.2 °F 60% 30.59 in 10.0 mi SW 6.9 mph - N/A   Clear
3:15 PM -0.4 °F -12.0 °F -11.2 °F 60% 30.59 in 10.0 mi SSW 5.8 mph - N/A   Clear
3:35 PM -0.4 °F -12.0 °F -11.2 °F 60% 30.58 in 10.0 mi SSW 5.8 mph - N/A   Clear
3:55 PM -0.4 °F -10.4 °F -11.2 °F 60% 30.59 in 10.0 mi SSW 4.6 mph - N/A   Clear
4:16 PM -0.4 °F -8.3 °F -11.2 °F 60% 30.58 in 10.0 mi South 3.5 mph - N/A   Clear
4:35 PM -2.2 °F - -11.2 °F 66% 30.57 in 10.0 mi Calm Calm - N/A   Clear
4:56 PM -2.2 °F -12.5 °F -11.2 °F 66% 30.57 in 10.0 mi South 4.6 mph - N/A   Scattered Clouds
5:15 PM -2.2 °F -10.4 °F -11.2 °F 66% 30.57 in 10.0 mi South 3.5 mph - N/A   Mostly Cloudy
5:35 PM -2.2 °F -10.4 °F -11.2 °F 66% 30.57 in 10.0 mi South 3.5 mph - N/A   Scattered Clouds
5:56 PM -2.2 °F -10.4 °F -11.2 °F 66% 30.57 in 10.0 mi South 3.5 mph - N/A   Clear
6:16 PM -4.0 °F -12.4 °F -13.0 °F 65% 30.56 in 10.0 mi South 3.5 mph - N/A   Clear
6:35 PM -4.0 °F - -13.0 °F 65% 30.56 in 10.0 mi Calm Calm - N/A   Clear
6:56 PM -9.4 °F - -16.6 °F 71% 30.56 in 10.0 mi Calm Calm - N/A   Clear
7:15 PM -9.4 °F - -16.6 °F 71% 30.56 in 10.0 mi Calm Calm - N/A   Clear
7:35 PM -9.4 °F - -16.6 °F 71% 30.55 in 10.0 mi Calm Calm - N/A   Clear
7:56 PM -9.4 °F - -16.6 °F 71% 30.56 in 10.0 mi Calm Calm - N/A   Clear
8:15 PM -9.4 °F - -16.6 °F 71% 30.55 in 10.0 mi Calm Calm - N/A   Clear
8:36 PM -11.2 °F - -18.4 °F 70% 30.54 in 10.0 mi Calm Calm - N/A   Clear
8:55 PM -11.2 °F - -18.4 °F 70% 30.54 in 10.0 mi Calm Calm - N/A   Clear
9:15 PM -11.2 °F - -18.4 °F 70% 30.53 in 10.0 mi Calm Calm - N/A   Clear
9:36 PM -11.2 °F - -18.4 °F 70% 30.53 in 10.0 mi Calm Calm - N/A   Clear
9:55 PM -13.0 °F - -18.4 °F 77% 30.53 in 10.0 mi Calm Calm - N/A   Clear
10:15 PM -11.2 °F - -18.4 °F 70% 30.53 in 10.0 mi Calm Calm - N/A   Clear
10:35 PM -13.0 °F - -20.2 °F 70% 30.53 in 10.0 mi Calm Calm - N/A   Clear
10:56 PM -13.0 °F - -18.4 °F 77% 30.52 in 10.0 mi Calm Calm - N/A   Clear
11:15 PM -13.0 °F - -20.2 °F 70% 30.52 in 10.0 mi Calm Calm - N/A   Clear
11:36 PM -9.4 °F - -16.6 °F 71% 30.52 in 10.0 mi Calm Calm - N/A   Clear
11:56 PM -11.2 °F - -18.4 °F 70% 30.52 in 10.0 mi Calm Calm - N/A   Clear